Regional Weather Roundup
Issued by NWS

Home | Current Version | Previous Version | Graphics & Text | Print | Product List | Glossary On
Versions: 1 2 3 4 5 6 7 8 9 10 11 12 13 14 15 16 17 18 19 20 21 22 23 24 25 26 27 28
000
ASUS45 KCYS 240110
RWRWY

WYOMING REGIONAL WEATHER ROUNDUP
NATIONAL WEATHER SERVICE CHEYENNE WY
700 PM MDT THU OCT 23 2014

NOTE:  "FAIR" INDICATES FEW OR NO CLOUDS BELOW 12,000 FEET
WITH NO SIGNIFICANT WEATHER AND/OR OBSTRUCTIONS TO VISIBILITY.

WYZ001-240200-
YELLOWSTONE NATIONAL PARK

CITY           SKY/WX    TMP DP  RH WIND       PRES   REMARKS
LK YELLOWSTONE   N/A     43  27  53 CALM      30.17
W YELLOWSTONE  NOT AVBL

$$
WYZ002>013-054>058-071-098>099-240200-
NORTHERN WYOMING

CITY           SKY/WX    TMP DP  RH WIND       PRES   REMARKS
JACKSON        CLOUDY    50  28  43 CALM      30.19R
CODY           MOCLDY    61  27  27 S7        29.97
GREYBULL       MOCLDY    59  25  27 CALM      29.91R
WORLAND        PTCLDY    55  27  34 SE5       29.92S
SHERIDAN       MOCLDY    53  34  48 SW7       29.91R
BUFFALO        MOCLDY    57  25  29 CALM      29.97S
GILLETTE       PTCLDY    43  31  62 S7        29.94R
HULETT         FAIR      50  30  46 S6        29.96
NEWCASTLE      FAIR      52  30  43 N5        29.97

$$
WYZ014>020-022>026-101>103-240200-
CENTRAL WYOMING

CITY           SKY/WX    TMP DP  RH WIND       PRES   REMARKS
BIG PINEY      MOCLDY    47  23  38 SW5       30.18S
PINEDALE       MOCLDY    48  30  49 CALM      30.18
DUBOIS         FAIR      50  21  32 NW20G26   30.09R
LANDER         MOCLDY    59  28  30 SW6       30.01S
RIVERTON       MOCLDY    57  22  25 E5        30.02S
CASPER         CLOUDY    58  22  24 SW13      30.04R
DOUGLAS        CLOUDY    60  28  29 SW8       30.02R

$$
WYZ021-027>030-104>119-240200-
SOUTHERN WYOMING

CITY           SKY/WX    TMP DP  RH WIND       PRES   REMARKS
EVANSTON       MOCLDY    53  25  33 SW9       30.19R
KEMMERER       MOCLDY    50  23  34 W10       30.19R
FORT BRIDGER   FAIR      55  24  30 W8        30.22R
ROCK SPRINGS   CLEAR     57  25  29 W6        30.18R
DIXON          FAIR      54  35  47 CALM      30.23R
RAWLINS        PTCLDY    56  29  35 SW14      30.18R
SARATOGA       FAIR      52  30  43 SW12      30.22R
LARAMIE        MOCLDY    52  26  36 W3        30.20R
CHEYENNE       MOCLDY    56  33  42 SW10      30.13S
TORRINGTON     PTCLDY    63  30  28 W7        29.99R
PINE BLUFFS    FAIR      59  32  36 SW9       30.09R

$$



USA.gov is the U.S. government's official web portal to all federal, state and local government web resources and services.